Montgomery, AL

2:42 AM CST on January 22, 2017 (GMT -0600)
Montgomery Regional

Weather History for KMGM - July, 2013

Change the Weather History Date:

Monday, July 15, 2013

  Actual Average Record
Temperature  
Mean Temperature 82 °F 82 °F  
Max Temperature 90 °F 92 °F 103 °F (2000)
Min Temperature 74 °F 72 °F 61 °F (1967)
Cooling Degree Days 17 17  
Month to date cooling degree days 214 249  
Year to date cooling degree days 1064 1007  
Since 1 June cooling degree days 705 668  
Growing Degree Days 32 (Base 50)    
Moisture  
Dew Point 71 °F    
Average Humidity 69    
Maximum Humidity 88    
Minimum Humidity 50    
Precipitation  
Precipitation 0.04 in 0.17 in 1.82 in (1938)
Month to date precipitation 2.83 2.67  
Year to date precipitation 32.39 30.18  
Sea Level Pressure  
Sea Level Pressure 30.15 in    
Wind  
Wind Speed 9 mph (East)    
Max Wind Speed 30 mph    
Max Gust Speed 36 mph    
Visibility 10 miles    
Events Rain    
T = Trace of Precipitation, MM = Missing Value Source: NWS Daily Summary

Daily Weather History Graph

Daily Weather History Graph

Search for Another Location

Airport or City:

Trip Planner

Search our weather history database for the weather conditions in past years. The results will help you decide how hot, cold, wet, or windy it might be!

Date:

Astronomy

Jul. 15, 2013 Rise Set
Actual Time 5:49 AM CDT 7:53 PM CDT
Civil Twilight 5:21 AM CDT 8:20 PM CDT
Nautical Twilight 4:48 AM CDT 8:54 PM CDT
Astronomical Twilight 4:11 AM CDT 9:30 PM CDT
Moon 12:40 PM CDT (7/15) No Moon Set
Length of Visible Light 14h 59m
Length of Day
14h 03m
Waxing Crescent, 45% of the Moon is Illuminated
Jul 15
Waxing Crescent
Jul 15
First Quarter
Jul 22
Full
Jul 29
Last Quarter
Aug 6
New

Hourly Weather History & Observations

Time (CDT) Temp. Heat Index Dew Point Humidity Pressure Visibility Wind Dir Wind Speed Gust Speed Precip Events Conditions
12:53 AM 75.9 °F - 72.0 °F 87% 30.09 in 10.0 mi East 8.1 mph - N/A   Scattered Clouds
1:53 AM 75.9 °F - 72.0 °F 87% 30.09 in 10.0 mi East 8.1 mph - N/A   Partly Cloudy
2:53 AM 75.0 °F - 72.0 °F 90% 30.10 in 10.0 mi East 8.1 mph - N/A   Partly Cloudy
3:21 AM 75.2 °F - 71.6 °F 89% 30.11 in 10.0 mi East 6.9 mph - N/A   Mostly Cloudy
3:53 AM 75.0 °F - 72.0 °F 90% 30.11 in 10.0 mi East 9.2 mph - N/A   Partly Cloudy
4:17 AM 75.2 °F - 71.6 °F 89% 30.12 in 10.0 mi East 9.2 mph - N/A   Partly Cloudy
4:35 AM 75.2 °F - 71.6 °F 89% 30.13 in 10.0 mi East 8.1 mph - N/A   Mostly Cloudy
4:53 AM 75.9 °F - 72.0 °F 87% 30.13 in 10.0 mi East 8.1 mph - N/A   Overcast
5:18 AM 75.2 °F - 71.6 °F 89% 30.14 in 10.0 mi East 5.8 mph - N/A   Overcast
5:28 AM 75.2 °F - 71.6 °F 89% 30.15 in 10.0 mi East 6.9 mph - N/A   Overcast
5:48 AM 75.2 °F - 71.6 °F 89% 30.15 in 10.0 mi East 8.1 mph - N/A   Mostly Cloudy
5:53 AM 75.0 °F - 72.0 °F 90% 30.15 in 10.0 mi East 8.1 mph - N/A   Mostly Cloudy
6:53 AM 75.9 °F - 72.0 °F 87% 30.17 in 10.0 mi East 8.1 mph - N/A   Mostly Cloudy
7:53 AM 77.0 °F - 72.0 °F 84% 30.18 in 10.0 mi East 9.2 mph - N/A   Overcast
8:07 AM 78.8 °F - 71.6 °F 78% 30.19 in 10.0 mi ESE 9.2 mph - N/A   Overcast
8:14 AM 78.8 °F - 71.6 °F 78% 30.19 in 10.0 mi East 8.1 mph - N/A   Overcast
8:51 AM 78.8 °F - 71.6 °F 78% 30.19 in 10.0 mi East 10.4 mph - N/A   Overcast
8:53 AM 79.0 °F - 72.0 °F 79% 30.19 in 10.0 mi East 10.4 mph - N/A   Overcast
9:53 AM 81.0 °F 85.2 °F 72.0 °F 74% 30.20 in 10.0 mi East 11.5 mph - N/A   Overcast
10:53 AM 84.0 °F 88.4 °F 70.0 °F 63% 30.20 in 10.0 mi East 12.7 mph - N/A   Mostly Cloudy
11:53 AM 84.0 °F 88.4 °F 70.0 °F 63% 30.20 in 10.0 mi East 10.4 mph - N/A   Mostly Cloudy
12:53 PM 87.1 °F 91.3 °F 69.1 °F 55% 30.17 in 10.0 mi East 13.8 mph - N/A   Mostly Cloudy
1:53 PM 86.0 °F 90.1 °F 69.1 °F 57% 30.15 in 10.0 mi East 9.2 mph - N/A   Mostly Cloudy
2:53 PM 89.1 °F 93.7 °F 69.1 °F 52% 30.13 in 10.0 mi East 10.4 mph 16.1 mph N/A   Scattered Clouds
3:53 PM 89.1 °F 92.9 °F 68.0 °F 50% 30.12 in 10.0 mi East 6.9 mph - N/A   Clear
4:53 PM 90.0 °F 94.5 °F 69.1 °F 50% 30.11 in 10.0 mi East 5.8 mph - N/A   Scattered Clouds
5:53 PM 81.0 °F 85.2 °F 72.0 °F 74% 30.13 in 8.0 mi ENE 19.6 mph 35.7 mph 0.00 in Rain Light Rain
6:53 PM 78.1 °F - 73.0 °F 84% 30.15 in 10.0 mi Calm Calm - 0.04 in   Mostly Cloudy
7:53 PM 77.0 °F - 73.0 °F 88% 30.18 in 10.0 mi East 3.5 mph - N/A   Partly Cloudy
8:53 PM 75.9 °F - 71.1 °F 85% 30.17 in 10.0 mi ENE 5.8 mph - N/A   Clear
9:53 PM 75.0 °F - 70.0 °F 84% 30.19 in 10.0 mi East 6.9 mph - N/A   Clear
10:53 PM 75.9 °F - 70.0 °F 82% 30.19 in 10.0 mi NE 6.9 mph - N/A   Clear
11:53 PM 75.9 °F - 70.0 °F 82% 30.19 in 10.0 mi East 8.1 mph - N/A   Clear